TimeCEST,TemperatureF,Dew PointF,Humidity,Sea Level PressureIn,VisibilityMPH,Wind Direction,Wind SpeedMPH,Gust SpeedMPH,PrecipitationIn,Events,Conditions,WindDirDegrees,DateUTC
12:00 AM,50,46,82,30.02,19,NE,2.2,,,,Scattered Clouds,50,2013-05-03 22:00:00
12:20 AM,50.0,44.6,82,30.01,-9999.0,Variable,1.2,-,N/A,,Clear,0,2013-05-03 22:20:00
12:50 AM,48.2,44.6,87,30.01,-9999.0,WNW,1.2,-,N/A,,Clear,290,2013-05-03 22:50:00
1:00 AM,47,44,86,30.03,16,Calm,Calm,,,,Scattered Clouds,,2013-05-03 23:00:00
1:20 AM,48.2,44.6,87,30.01,-9999.0,NE,2.3,-,N/A,,Clear,40,2013-05-03 23:20:00
1:50 AM,46.4,44.6,93,30.01,-9999.0,ENE,2.3,-,N/A,,Clear,70,2013-05-03 23:50:00
2:00 AM,46,45,93,30.02,16,ENE,2.2,,,,Scattered Clouds,70,2013-05-04 00:00:00
2:20 AM,46.4,42.8,87,30.01,-9999.0,NE,2.3,-,N/A,,Clear,50,2013-05-04 00:20:00
2:50 AM,44.6,42.8,93,30.01,-9999.0,ENE,2.3,-,N/A,,Clear,60,2013-05-04 00:50:00
3:00 AM,44,43,96,30.01,16,ENE,2.2,,,,Scattered Clouds,60,2013-05-04 01:00:00
3:20 AM,44.6,41.0,87,30.01,-9999.0,Variable,1.2,-,N/A,,Clear,0,2013-05-04 01:20:00
3:50 AM,44.6,41.0,87,29.98,6.2,East,1.2,-,N/A,Fog,Shallow Fog,100,2013-05-04 01:50:00
4:00 AM,43,42,94,30.01,16,Calm,Calm,,,Fog,Shallow Fog,,2013-05-04 02:00:00
4:20 AM,44.6,42.8,93,30.01,6.2,Variable,1.2,-,N/A,Fog,Shallow Fog,0,2013-05-04 02:20:00
4:50 AM,44.6,41.0,87,30.01,6.2,West,1.2,-,N/A,Fog,Shallow Fog,260,2013-05-04 02:50:00
5:20 AM,46.4,44.6,93,30.01,6.2,West,4.6,-,N/A,Fog,Shallow Fog,270,2013-05-04 03:20:00
5:50 AM,46.4,42.8,87,30.01,-9999.0,West,2.3,-,N/A,,Clear,260,2013-05-04 03:50:00
6:00 AM,46,43,85,30.03,9,West,2.2,,,,Partly Cloudy,260,2013-05-04 04:00:00
6:20 AM,46.4,42.8,87,30.01,6.2,WSW,3.5,-,N/A,Fog,Shallow Fog,250,2013-05-04 04:20:00
6:50 AM,46.4,42.8,87,30.04,5.0,WSW,3.5,-,N/A,,Unknown,250,2013-05-04 04:50:00
7:00 AM,46,42,83,30.04,5,WSW,2.2,,,,Mostly Cloudy,250,2013-05-04 05:00:00
7:20 AM,46.4,42.8,87,30.04,5.0,SSW,2.3,-,N/A,,Unknown,210,2013-05-04 05:20:00
7:50 AM,48.2,44.6,87,30.04,5.6,SW,3.5,-,N/A,,Unknown,220,2013-05-04 05:50:00
8:00 AM,49,45,79,30.06,6,SW,2.2,,,,Scattered Clouds,220,2013-05-04 06:00:00
8:20 AM,50.0,44.6,82,30.04,5.6,SW,4.6,-,N/A,,Unknown,220,2013-05-04 06:20:00
8:50 AM,51.8,42.8,71,30.06,-9999.0,WSW,6.9,-,N/A,,Clear,250,2013-05-04 06:50:00
9:00 AM,52,42,58,30.06,6,WSW,6.7,,,,,250,2013-05-04 07:00:00
9:20 AM,53.6,42.8,67,30.06,-9999.0,WSW,6.9,-,N/A,,Clear,250,2013-05-04 07:20:00
9:50 AM,55.4,42.8,63,30.06,-9999.0,West,5.8,-,N/A,,Clear,260,2013-05-04 07:50:00
10:00 AM,55,43,54,30.08,7,West,6.7,,,,,260,2013-05-04 08:00:00
10:20 AM,57.2,44.6,63,30.06,-9999.0,WSW,5.8,-,N/A,,Clear,250,2013-05-04 08:20:00
10:50 AM,57.2,42.8,59,30.06,-9999.0,SSW,4.6,-,N/A,,Clear,210,2013-05-04 08:50:00
11:20 AM,59.0,42.8,55,30.06,-9999.0,WSW,4.6,-,N/A,,Clear,240,2013-05-04 09:20:00
11:50 AM,60.8,42.8,52,30.06,-9999.0,West,8.1,-,N/A,,Clear,270,2013-05-04 09:50:00
12:00 PM,60,43,41,30.08,11,West,8.9,,,,Clear,270,2013-05-04 10:00:00
12:20 PM,62.6,42.8,48,30.06,-9999.0,WSW,6.9,-,N/A,,Clear,250,2013-05-04 10:20:00
12:50 PM,64.4,44.6,49,30.06,6.2,West,10.4,-,N/A,,Partly Cloudy,260,2013-05-04 10:50:00
1:00 PM,63,44,39,30.07,19,West,8.9,,,,Scattered Clouds,260,2013-05-04 11:00:00
1:20 PM,64.4,41.0,42,30.06,6.2,West,11.5,-,N/A,,Partly Cloudy,260,2013-05-04 11:20:00
1:50 PM,64.4,41.0,42,30.06,6.2,West,10.4,-,N/A,,Partly Cloudy,270,2013-05-04 11:50:00
2:00 PM,64,41,31,30.06,19,West,11.2,,,,Scattered Clouds,270,2013-05-04 12:00:00
2:20 PM,66.2,42.8,43,30.04,6.2,WSW,8.1,-,N/A,,Partly Cloudy,250,2013-05-04 12:20:00
2:50 PM,66.2,42.8,43,30.04,-9999.0,WSW,10.4,-,N/A,,Clear,250,2013-05-04 12:50:00
3:00 PM,66,41,28,30.06,19,WSW,11.2,,,,Scattered Clouds,250,2013-05-04 13:00:00
3:20 PM,66.2,41.0,40,30.04,-9999.0,WSW,8.1,-,N/A,,Clear,250,2013-05-04 13:20:00
3:50 PM,68.0,42.8,40,30.04,-9999.0,West,12.7,-,N/A,,Clear,270,2013-05-04 13:50:00
4:00 PM,67,42,29,30.05,19,WSW,8.9,,,,Scattered Clouds,240,2013-05-04 14:00:00
4:20 PM,68.0,42.8,40,30.04,-9999.0,West,9.2,-,N/A,,Clear,260,2013-05-04 14:20:00
4:50 PM,68.0,41.0,37,30.04,-9999.0,West,9.2,-,N/A,,Clear,280,2013-05-04 14:50:00
5:20 PM,68.0,42.8,40,30.04,-9999.0,West,11.5,-,N/A,,Clear,270,2013-05-04 15:20:00
5:50 PM,68.0,39.2,35,30.04,-9999.0,West,11.5,-,N/A,,Clear,270,2013-05-04 15:50:00
6:00 PM,67,39,24,30.05,22,West,11.2,,,,Scattered Clouds,270,2013-05-04 16:00:00
6:20 PM,68.0,41.0,37,30.04,-9999.0,West,11.5,-,N/A,,Clear,260,2013-05-04 16:20:00
6:50 PM,66.2,39.2,37,30.06,-9999.0,West,10.4,-,N/A,,Clear,270,2013-05-04 16:50:00
7:00 PM,66,39,26,30.06,22,West,11.2,,,,Scattered Clouds,270,2013-05-04 17:00:00
7:20 PM,66.2,41.0,40,30.06,-9999.0,West,11.5,-,N/A,,Clear,270,2013-05-04 17:20:00
7:50 PM,64.4,42.8,45,30.06,-9999.0,West,11.5,-,N/A,,Clear,280,2013-05-04 17:50:00
8:00 PM,65,42,31,30.08,22,West,11.2,,,,Scattered Clouds,280,2013-05-04 18:00:00
8:20 PM,64.4,42.8,45,30.06,-9999.0,West,9.2,-,N/A,,Clear,280,2013-05-04 18:20:00
8:50 PM,62.6,42.8,48,30.09,-9999.0,West,9.2,-,N/A,,Clear,280,2013-05-04 18:50:00
9:00 PM,61,43,39,30.10,16,West,8.9,,,,Scattered Clouds,280,2013-05-04 19:00:00
9:20 PM,60.8,42.8,52,30.09,-9999.0,West,9.2,-,N/A,,Clear,280,2013-05-04 19:20:00
9:50 PM,59.0,42.8,55,30.12,-9999.0,West,9.2,-,N/A,,Clear,280,2013-05-04 19:50:00
10:00 PM,59,43,44,30.14,19,West,8.9,,,,Scattered Clouds,280,2013-05-04 20:00:00
10:20 PM,57.2,42.8,59,30.15,-9999.0,West,10.4,-,N/A,,Clear,270,2013-05-04 20:20:00
10:50 PM,55.4,42.8,63,30.15,-9999.0,West,6.9,-,N/A,,Clear,260,2013-05-04 20:50:00
11:20 PM,55.4,42.8,63,30.15,-9999.0,West,5.8,-,N/A,,Clear,270,2013-05-04 21:20:00
11:50 PM,53.6,41.0,62,30.18,-9999.0,SW,2.3,-,N/A,,Clear,230,2013-05-04 21:50:00